World > North America > United States > Washington > Queensborough  

Queensborough, WA Hourly Weather Updates

Feedback E-mail the Weather

Quick WX

Queensborough, WA Weather Maps

°F °C°F °C
Queensborough Weather Map
UTC Time: 2/26/2024, 08:19
Your Time:

Queensborough, WA Regional Weather

Expires:202402260900;;715748
ASUS46 KSEW 260810
RWRWA 

WASHINGTON REGIONAL WEATHER ROUNDUP
NATIONAL WEATHER SERVICE SEATTLE WA
1200 AM PST MON FEB 26 2024

NOTE:"FAIR" INDICATES FEW OR NO CLOUDS BELOW 12,000 FEET WITH NO 
SIGNIFICANT WEATHER AND/OR OBSTRUCTIONS TO VISIBILITY.


WAZ507-509-555>559-260900-
SEATTLE, TACOMA, EVERETT, AND VICINITY
  
CITY           SKY/WX    TMP DP  RH WIND       PRES   REMARKS
EVERETT        MOCLDY    39  25  57 S6        29.74R TC   4           
BOEING FIELD   CLOUDY    38  34  85 E10       29.77R TC   3           
RENTON         CLOUDY    39  34  82 VRB3      29.77S TC   4           
SEATAC AIRPORT CLOUDY    38  31  76 E8        29.76R TC   3           
JBLM-MCCHORD   MOCLDY    40  30  66 SW18G24   29.75S TC   5           
PUYALLUP         N/A     39  34  81 VRB6G15   29.77S TC   4           
BREMERTON      PTCLDY    32  29  88 S3        29.75R TC   0           
JBLM-FT LEWIS  MOCLDY    40  31  68 S12       29.75S TC   5           
TACOMA NARROWS MOCLDY    40  30  67 VRB5      29.76R TC   4           
$$
 

SKY/WX - Weather  TMP - Temperature  DP - Dew Point  RH - Humidity
WIND - Wind Direction/Speed PRES - Barometric Pressure VSB - Visibility
WCI - Wind Chill Index E13G22 Wind - East Wind 13 mph/Gusts of 22 mph

Trending Headlines

Trending Entertainment Headlines

Queensborough Radar Loop

Use the map search tool if you want to place a location marker on the radar map...

Queensborough Quick Facts

National Two Day Weather Forecast


E-mail the Queensborough Weather Forecast

Voice your opinion or tell us about page issues...